GLOBALSTAR M069 [+]

Last updated on Fri Dec 29 2023 00:02:56 GMT+0000 (Coordinated Universal Time)

1 31573U 07020C 23362.19585038 -.00000065 00000+0 21809-3 0 9997 2 31573 51.9973 16.6748 0000132 308.4634 127.6304 12.62263081766666

Satellite not in orbit

GLOBALSTAR M069 [+]